Regional Weather Roundup
Issued by NWS San Angelo, TX

Home | Current Version | Previous Version | Text Only | Print | Product List | Glossary On
Versions: 1 2 3 4 5 6 7 8 9 10 11 12 13 14 15 16 17 18 19 20 21 22 23 24 25 26 27 28 29 30 31 32 33 34 35 36 37 38 39 40 41 42 43 44 45 46 47 48 49 50
000
ASUS44 KSJT 281611
RWRSJT
WEST CENTRAL TEXAS REGIONAL WEATHER ROUNDUP
NATIONAL WEATHER SERVICE SAN ANGELO TX
1100 AM CDT SAT MAY 28 2016

NOTE: "FAIR" INDICATES FEW OR NO CLOUDS BELOW 12,000 FEET WITH NO
SIGNIFICANT WEATHER AND/OR OBSTRUCTIONS TO VISIBILITY.

TXZ049-054-064>066-071>073-076>078-098-099-113-114-127-128-139-140-
154-155-168>170-281700
...LOCATIONS ACROSS WEST CENTRAL TEXAS...

CITY           SKY/WX    TMP DP  RH WIND       PRES   REMARKS
SAN ANGELO     SUNNY     81  67  62 S10       29.96S
ABILENE        SUNNY     82  67  60 SW12      29.97S
DYESS AFB      NOT AVBL
JUNCTION       MOSUNNY   80  67  64 S13       29.97S
SWEETWATER     SUNNY     80  56  43 S9        30.02S
BROWNWOOD      PTSUNNY   75  70  83 S8        29.97S
COLEMAN        SUNNY     75  67  74 S3        29.98R
SONORA         PTSUNNY   79  68  69 S14       30.03S
OZONA          PTSUNNY   75  64  69 S14G22    30.03S
BRADY          NOT AVBL
$$

TEXAS PANHANDLE/OKLAHOMA PANHANDLE

CITY           SKY/WX    TMP DP  RH WIND       PRES   REMARKS
AMARILLO       SUNNY     69  46  43 NE8       30.05S
BORGER         SUNNY     70  47  43 N5        30.04S
CANADIAN       SUNNY     69  54  57 NW8       30.01R
DALHART        SUNNY     66  44  45 E5        30.08S
DUMAS          SUNNY     68  44  41 E3        30.06S
GUYMON         NOT AVBL
HEREFORD       SUNNY     72  42  33 NE8       30.07R
PAMPA          SUNNY     69  48  46 N9        30.05S
PERRYTON       SUNNY     70  49  48 NW7       30.02S
$$

SOUTHERN PANHANDLE/SOUTH PLAINS/ROLLING PLAINS

CITY           SKY/WX    TMP DP  RH WIND       PRES   REMARKS
LUBBOCK        SUNNY     71  44  37 E9        30.04R
SNYDER           N/A     73  50  43 CALM      30.00S
CHILDRESS      SUNNY     72  50  45 NE5       30.00S
SEMINOLE       SUNNY     74  42  31 E7        30.04S
$$

PERMIAN BASIN

CITY           SKY/WX    TMP DP  RH WIND       PRES   REMARKS
MIDLAND        SUNNY     87  20   8 SW6       29.98S
ODESSA         SUNNY     84  19   9 CALM      30.00S
WINK           SUNNY     84  21  10 S7        29.97S
$$

FAR WEST/SOUTHWEST MOUNTAINS/TRANS PECOS

CITY           SKY/WX    TMP DP  RH WIND       PRES   REMARKS
ALPINE         SUNNY     80  15   9 E5        30.12S
DRYDEN           N/A     74  64  71 E9        29.97S
EL PASO        SUNNY     76  18  11 CALM      30.02S
FORT STOCKTON  NOT AVBL
GUADALUPE PASS NOT AVBL
MARFA          NOT AVBL
PECOS          SUNNY     80  22  11 N6        29.98S
$$

DALLAS/FORT WORTH METROPLEX

CITY           SKY/WX    TMP DP  RH WIND       PRES   REMARKS
DFW AIRPORT    CLOUDY    73  65  75 S6        29.96R
FTW MEACHAM    CLOUDY    74  66  76 S10       29.95S
DAL-EXECUTIVE  CLOUDY    70  65  84 CALM      29.96S
GRAND PRAIRIE  CLOUDY    72  64  78 E5        29.98S
ADDISON        PTSUNNY   73  66  78 S3        29.97S
MESQUITE       NOT AVBL
LANCASTER      CLOUDY    69  64  84 CALM      29.98S
$$

NORTH CENTRAL TEXAS

CITY           SKY/WX    TMP DP  RH WIND       PRES   REMARKS
SHRMAN/DENISON MOSUNNY   71  61  70 S3        29.98S
GAINESVILLE    SUNNY     74  65  72 S8        29.97S
BRIDGEPORT     SUNNY     78  68  72 S7        29.96R
DENTON         CLOUDY    74  65  73 S7        29.96R
WAXAHACHIE     CLOUDY    69  68  98 CALM      29.98S
GRANBURY       CLOUDY    74  68  82 S7        29.97S
$$

WESTERN NORTH TEXAS

CITY           SKY/WX    TMP DP  RH WIND       PRES   REMARKS
WICHITA FALLS  MOSUNNY   74  66  76 NW8       29.94R
VERNON         SUNNY     75  53  46 N6        29.96S
BRECKENRIDGE   SUNNY     80  65  59 SW9       29.95S
COMANCHE       PTSUNNY   75  71  88 SW8       29.97S
$$

CENTRAL AND SOUTH CENTRAL TEXAS

CITY           SKY/WX    TMP DP  RH WIND       PRES   REMARKS
AUSTIN/BERGSTM CLOUDY    77  74  90 S9        29.96R FOG
WACO           PTSUNNY   80  70  71 SW12      29.95S
HILLSBORO      CLOUDY    71  69  92 SW7       29.97R
TEMPLE         CLOUDY    75  72  90 S9        29.96S
KILLEEN-GRAY   CLOUDY    75  73  94 S10       29.95F
FORT HOOD      CLOUDY    72  71  98 SW10      29.94S
GEORGETOWN     CLOUDY    79  68  69 S14       29.95S
LAGO VISTA     CLOUDY    77  74  89 SW10      29.98S
SAN MARCOS     PTSUNNY   81  75  83 S14       29.96S FOG
NEW BRAUNFELS  PTSUNNY   84  75  74 S14G20    29.94S
RANDOLPH AFB   PTSUNNY   82  77  83 S9        29.95S
SAN ANTONIO    PTSUNNY   81  74  79 S10G21    29.96S
STINSON        PTSUNNY   86  75  69 SE5       29.92F
PLEASANTON     NOT AVBL
LA GRANGE        N/A     85  76  74 S15G23    29.94R
GIDDINGS       PTSUNNY   82  72  72 SW10G18   29.99R
$$

EAST TEXAS

CITY           SKY/WX    TMP DP  RH WIND       PRES   REMARKS
PARIS          CLOUDY    70  57  64 W6        30.00R
CLARKSVILLE    NOT AVBL
TYLER          CLOUDY    71  64  78 NW6       29.98S
LONGVIEW       MOSUNNY   77  69  76 W6        29.98R
PALESTINE      CLOUDY    73  68  86 SW5       29.98S
NACOGDOCHES    PTSUNNY   77  70  78 W7        29.98R
$$

TEXAS HILL COUNTRY AND EDWARDS PLATEAU

CITY           SKY/WX    TMP DP  RH WIND       PRES   REMARKS
LLANO          PTSUNNY   81  75  83 S10       30.00R
HORSESHOE BAY  CLOUDY    79  72  80 S8        29.97R
KERRVILLE      CLOUDY    73  72  96 SE9       30.00S FOG
FREDERICKSBRG  CLOUDY    74  71  89 S8        30.00R
ROCKSPRINGS    CLOUDY    73  72  94 S13G18    30.03R
HONDO          CLOUDY    82  74  76 S10       29.97R
UVALDE         CLOUDY    80  74  82 SE7       29.95S
DEL RIO        CLOUDY    79  73  82 SE12      29.92F
$$

SOUTHEAST TEXAS

CITY           SKY/WX    TMP DP  RH WIND       PRES   REMARKS
COLLEGE STN    PTSUNNY   78  73  84 SW9       29.97R
CALDWELL       PTSUNNY   75  75 100 S5        29.99S
CROCKETT       PTSUNNY   79  72  78 SW13G18   30.00R
BRENHAM        PTSUNNY   82  76  83 S5        29.97R
HUNTSVILLE     SUNNY     80  71  74 SW8G18    29.97R
CONROE         SUNNY     81  71  71 S9        29.97R
HOUSTON BUSH   SUNNY     80  70  71 VRB7      29.97R
HOUSTON HOBBY  MOSUNNY   83  72  69 S8        29.96R
PERLAND        SUNNY     84  71  65 S9        29.98R
WHARTON        SUNNY     84  73  70 S10       29.97R
$$

THE UPPER TEXAS COAST

CITY           SKY/WX    TMP DP  RH WIND       PRES   REMARKS
ORANGE         SUNNY     83  62  48 S8        29.99R
PORT ARTHUR    SUNNY     84  71  65 SW6       29.96R
GALVESTON      SUNNY     81  74  79 S9        29.97R
ANGLETON       SUNNY     84  70  62 S12       29.96R
BAY CITY       SUNNY     83  74  73 SE12      29.97R
$$

TEXAS COASTAL BEND, RIO GRANDE PLAINS DEEP SOUTH TEXAS

CITY           SKY/WX    TMP DP  RH WIND       PRES   REMARKS
VICTORIA       PTSUNNY   84  73  69 S16       29.96R
BEEVILLE       CLOUDY    86  78  76 S18       29.93S
ROCKPORT       PTSUNNY   85  73  67 SE22G31   29.93S
PORT ARANSAS   CLOUDY    85  76  74 SE20G26   29.94S
PORT LAVACA    SUNNY     85  74  71 S16G23    29.95R
CORPUS CHRISTI PTSUNNY   84  76  76 SE17      29.93R
KINGSVILLE NAS PTSUNNY   87  79  76 SE22G30   29.91R
COTULLA        MOSUNNY   88  73  61 SE15      29.91R
LAREDO         CLOUDY    88  75  65 SE21G26   29.89S
BROWNSVILLE    CLOUDY    84  76  76 SE16      29.91R
PORT ISABEL    CLOUDY    85  76  74 SE21G30   29.90S
HEBBRONVILLE   PTSUNNY   85  73  67 SE17G23   29.91F
MCALLEN        PTSUNNY   89  76  65 SE23      29.89R
WESLACO        PTSUNNY   89  74  62 SE13G24   29.88S
FALFURRIAS     PTSUNNY   88  73  61 SE16G24   29.90R
EDINBURG       PTSUNNY   89  74  60 SE17      29.89S
$$



USA.gov is the U.S. government's official web portal to all federal, state and local government web resources and services.